QPF
0.00 0.01 0.02 0.03 0.04 0.05 0.05 0.04 0.03 0.03 0.03 0.03 0.04 0.03 0.03 0.01 0.01 0.01 0.01 0.02 0.02 0.02 0.01 0.01 0.01 0.02 0.03 0.03 0.02 0.01 0.02 0.02 0.00 0.00 0.00 0.00 0.01 0.01 0.01 0.01 0.00 0.01 0.01
0.00 0.01 0.02 0.03 0.04 0.04 0.05 0.05 0.04 0.03 0.04 0.03 0.03 0.04 0.03 0.02 0.01 0.01 0.01 0.01 0.02 0.02 0.02 0.01 0.01 0.01 0.02 0.02 0.02 0.02 0.01 0.01 0.00 0.00 0.00 0.00 0.01 0.02 0.01 0.00 0.01 0.02 0.01
0.00 0.01 0.02 0.02 0.03 0.04 0.05 0.07 0.05 0.04 0.04 0.03 0.03 0.03 0.03 0.03 0.02 0.01 0.01 0.01 0.02 0.03 0.02 0.02 0.02 0.01 0.02 0.02 0.02 0.02 0.02 0.01 0.00 0.00 0.00 0.00 0.01 0.01 0.01 0.01 0.01 0.01 0.01
0.00 0.01 0.02 0.02 0.03 0.03 0.05 0.06 0.07 0.06 0.05 0.04 0.03 0.03 0.03 0.03 0.02 0.02 0.01 0.01 0.01 0.02 0.03 0.03 0.03 0.02 0.02 0.02 0.02 0.01 0.01 0.01 0.00 0.00 0.00 0.00 0.01 0.01 0.01 0.01 0.01 0.01 0.01
0.00 0.01 0.02 0.02 0.02 0.03 0.04 0.05 0.06 0.06 0.06 0.05 0.03 0.03 0.02 0.02 0.02 0.02 0.01 0.01 0.01 0.02 0.03 0.03 0.03 0.02 0.02 0.02 0.02 0.02 0.01 0.01 0.00 0.00 0.00 0.00 0.01 0.02 0.02 0.02 0.02 0.01 0.01
0.00 0.01 0.03 0.05 0.03 0.03 0.04 0.05 0.05 0.05 0.06 0.06 0.05 0.04 0.02 0.02 0.02 0.02 0.02 0.01 0.01 0.02 0.04 0.04 0.02 0.02 0.02 0.02 0.01 0.02 0.02 0.01 0.01 0.00 0.00 0.00 0.01 0.01 0.01 0.02 0.02 0.01 0.01
0.01 0.01 0.03 0.06 0.04 0.03 0.03 0.05 0.06 0.05 0.05 0.07 0.08 0.07 0.04 0.03 0.01 0.01 0.02 0.01 0.01 0.01 0.03 0.04 0.02 0.02 0.02 0.01 0.01 0.01 0.02 0.02 0.01 0.00 0.00 0.00 0.01 0.01 0.01 0.01 0.01 0.01 0.01
0.01 0.01 0.03 0.07 0.07 0.05 0.04 0.04 0.09 0.08 0.06 0.06 0.09 0.11 0.08 0.05 0.03 0.02 0.02 0.02 0.01 0.01 0.02 0.03 0.02 0.02 0.01 0.01 0.01 0.01 0.01 0.01 0.01 0.00 0.00 0.00 0.00 0.00 0.01 0.01 0.01 0.02 0.02
0.02 0.02 0.03 0.07 0.09 0.06 0.04 0.04 0.08 0.10 0.09 0.06 0.06 0.10 0.12 0.09 0.06 0.02 0.02 0.02 0.02 0.01 0.02 0.02 0.02 0.01 0.01 0.01 0.01 0.01 0.01 0.01 0.01 0.01 0.00 0.00 0.01 0.01 0.01 0.01 0.01 0.02 0.01
0.03 0.03 0.03 0.05 0.08 0.07 0.04 0.04 0.04 0.06 0.08 0.08 0.08 0.08 0.09 0.11 0.08 0.03 0.02 0.02 0.02 0.01 0.01 0.02 0.02 0.01 0.01 0.01 0.01 0.01 0.01 0.01 0.01 0.00 0.00 0.00 0.01 0.01 0.01 0.01 0.01 0.01 0.01
0.06 0.06 0.05 0.06 0.07 0.07 0.05 0.03 0.04 0.03 0.04 0.05 0.07 0.07 0.09 0.09 0.08 0.05 0.02 0.01 0.01 0.02 0.01 0.01 0.01 0.01 0.01 0.01 0.01 0.01 0.01 0.01 0.01 0.01 0.00 0.00 0.00 0.01 0.02 0.02 0.01 0.01 0.01
0.06 0.06 0.06 0.07 0.07 0.07 0.06 0.04 0.04 0.03 0.03 0.04 0.05 0.06 0.08 0.09 0.08 0.06 0.03 0.01 0.01 0.01 0.02 0.02 0.02 0.01 0.01 0.01 0.01 0.01 0.01 0.01 0.01 0.01 0.01 0.00 0.01 0.01 0.02 0.02 0.01 0.01 0.01
0.09 0.09 0.08 0.09 0.09 0.08 0.06 0.03 0.03 0.03 0.04 0.04 0.04 0.05 0.06 0.08 0.07 0.06 0.06 0.03 0.02 0.02 0.02 0.02 0.03 0.02 0.01 0.00 0.00 0.01 0.01 0.01 0.01 0.01 0.01 0.01 0.01 0.01 0.02 0.02 0.01 0.01 0.01
0.10 0.10 0.09 0.10 0.11 0.10 0.08 0.04 0.03 0.03 0.03 0.05 0.04 0.03 0.03 0.05 0.07 0.07 0.06 0.06 0.03 0.02 0.02 0.02 0.02 0.02 0.01 0.01 0.00 0.01 0.01 0.00 0.01 0.01 0.01 0.01 0.01 0.02 0.03 0.03 0.02 0.01 0.01
0.11 0.11 0.11 0.10 0.12 0.13 0.12 0.07 0.03 0.03 0.03 0.04 0.05 0.04 0.03 0.04 0.06 0.06 0.06 0.06 0.06 0.04 0.03 0.03 0.02 0.01 0.01 0.01 0.01 0.01 0.01 0.01 0.00 0.01 0.01 0.01 0.01 0.02 0.02 0.03 0.02 0.01 0.01
0.14 0.15 0.13 0.13 0.12 0.13 0.12 0.09 0.06 0.04 0.04 0.04 0.04 0.04 0.03 0.03 0.04 0.05 0.05 0.05 0.06 0.05 0.05 0.04 0.02 0.02 0.01 0.01 0.01 0.01 0.01 0.01 0.01 0.01 0.01 0.01 0.01 0.01 0.02 0.02 0.02 0.01 0.01
0.15 0.16 0.16 0.14 0.12 0.13 0.12 0.10 0.08 0.05 0.05 0.06 0.05 0.04 0.03 0.02 0.03 0.05 0.05 0.04 0.05 0.05 0.06 0.07 0.05 0.02 0.01 0.01 0.01 0.01 0.01 0.01 0.01 0.01 0.01 0.01 0.01 0.01 0.01 0.01 0.01 0.02 0.01
0.19 0.17 0.22 0.19 0.14 0.13 0.14 0.11 0.09 0.06 0.04 0.04 0.06 0.06 0.05 0.04 0.02 0.03 0.04 0.04 0.04 0.05 0.05 0.06 0.08 0.05 0.02 0.01 0.01 0.01 0.01 0.01 0.01 0.01 0.02 0.01 0.01 0.01 0.01 0.01 0.01 0.01 0.01
0.26 0.21 0.25 0.31 0.21 0.13 0.13 0.13 0.08 0.06 0.05 0.04 0.06 0.07 0.06 0.05 0.04 0.03 0.03 0.03 0.03 0.05 0.06 0.05 0.06 0.07 0.05 0.02 0.01 0.01 0.01 0.01 0.01 0.01 0.02 0.02 0.02 0.01 0.01 0.01 0.01 0.01 0.01
0.30 0.26 0.24 0.32 0.35 0.26 0.16 0.13 0.09 0.05 0.04 0.03 0.04 0.06 0.07 0.06 0.06 0.05 0.04 0.03 0.03 0.04 0.05 0.06 0.05 0.05 0.05 0.04 0.02 0.01 0.01 0.01 0.01 0.01 0.01 0.02 0.02 0.02 0.02 0.01 0.01 0.01 0.01
0.25 0.26 0.27 0.27 0.34 0.35 0.27 0.16 0.10 0.06 0.04 0.02 0.02 0.03 0.04 0.05 0.05 0.04 0.03 0.04 0.03 0.03 0.04 0.04 0.05 0.05 0.04 0.04 0.04 0.02 0.01 0.01 0.02 0.01 0.01 0.01 0.02 0.03 0.03 0.02 0.01 0.01 0.01
0.18 0.19 0.20 0.23 0.24 0.29 0.25 0.16 0.09 0.04 0.03 0.03 0.03 0.04 0.03 0.03 0.03 0.03 0.02 0.03 0.03 0.03 0.05 0.06 0.04 0.04 0.03 0.03 0.04 0.03 0.03 0.03 0.02 0.01 0.01 0.01 0.01 0.02 0.02 0.03 0.03 0.03 0.02
0.12 0.14 0.13 0.15 0.17 0.20 0.22 0.17 0.10 0.05 0.03 0.03 0.03 0.03 0.04 0.03 0.03 0.02 0.02 0.03 0.04 0.04 0.04 0.06 0.06 0.04 0.03 0.03 0.03 0.03 0.03 0.03 0.03 0.02 0.01 0.01 0.01 0.01 0.02 0.02 0.02 0.03 0.03
0.07 0.10 0.09 0.10 0.12 0.16 0.20 0.18 0.12 0.06 0.03 0.02 0.02 0.02 0.03 0.03 0.03 0.03 0.03 0.03 0.04 0.05 0.05 0.06 0.07 0.07 0.05 0.04 0.04 0.03 0.02 0.02 0.03 0.03 0.02 0.01 0.00 0.01 0.01 0.02 0.03 0.02 0.02
0.05 0.08 0.08 0.07 0.09 0.12 0.16 0.19 0.13 0.07 0.04 0.02 0.01 0.01 0.01 0.01 0.01 0.01 0.02 0.02 0.02 0.03 0.05 0.05 0.06 0.06 0.06 0.06 0.05 0.05 0.03 0.02 0.02 0.02 0.02 0.01 0.00 0.00 0.01 0.01 0.02 0.02 0.02
0.03 0.05 0.07 0.06 0.07 0.09 0.11 0.16 0.15 0.09 0.05 0.03 0.01 0.01 0.00 0.00 0.00 0.01 0.01 0.01 0.02 0.03 0.04 0.05 0.05 0.06 0.06 0.05 0.04 0.03 0.03 0.03 0.03 0.02 0.02 0.02 0.02 0.02 0.01 0.01 0.02 0.02 0.02
MSLP
1013.33 1013.55 1013.90 1014.34 1014.84 1015.33 1015.74 1016.04 1016.22 1016.29 1016.29 1016.28 1016.29 1016.35 1016.47 1016.61 1016.76 1016.87 1016.92 1016.92 1016.87 1016.80 1016.75 1016.74 1016.77 1016.83 1016.91 1016.98 1017.01 1017.00 1016.94 1016.86 1016.76 1016.67 1016.61 1016.57 1016.55 1016.53 1016.51 1016.46 1016.38 1016.29 1016.19
1013.06 1013.36 1013.78 1014.30 1014.86 1015.39 1015.83 1016.14 1016.32 1016.39 1016.39 1016.38 1016.39 1016.46 1016.58 1016.73 1016.88 1017.00 1017.06 1017.06 1017.02 1016.97 1016.93 1016.94 1016.98 1017.06 1017.14 1017.21 1017.23 1017.20 1017.11 1017.00 1016.88 1016.77 1016.70 1016.66 1016.64 1016.63 1016.61 1016.56 1016.49 1016.39 1016.29
1012.81 1013.17 1013.66 1014.24 1014.83 1015.39 1015.86 1016.19 1016.38 1016.46 1016.48 1016.48 1016.51 1016.58 1016.71 1016.87 1017.02 1017.13 1017.19 1017.19 1017.16 1017.12 1017.10 1017.11 1017.17 1017.25 1017.34 1017.39 1017.39 1017.33 1017.23 1017.08 1016.94 1016.82 1016.73 1016.68 1016.67 1016.66 1016.64 1016.60 1016.53 1016.44 1016.32
1012.64 1013.06 1013.59 1014.20 1014.82 1015.40 1015.87 1016.21 1016.42 1016.53 1016.57 1016.59 1016.65 1016.75 1016.89 1017.04 1017.19 1017.30 1017.35 1017.35 1017.31 1017.28 1017.26 1017.29 1017.35 1017.43 1017.50 1017.54 1017.52 1017.44 1017.30 1017.14 1016.98 1016.84 1016.75 1016.69 1016.68 1016.67 1016.65 1016.61 1016.55 1016.45 1016.34
1012.61 1013.06 1013.62 1014.24 1014.87 1015.44 1015.91 1016.26 1016.49 1016.62 1016.69 1016.76 1016.84 1016.96 1017.12 1017.28 1017.42 1017.52 1017.56 1017.55 1017.52 1017.48 1017.47 1017.49 1017.55 1017.62 1017.68 1017.69 1017.65 1017.54 1017.39 1017.21 1017.03 1016.89 1016.79 1016.73 1016.71 1016.70 1016.68 1016.64 1016.57 1016.48 1016.38
1012.73 1013.21 1013.77 1014.39 1015.01 1015.56 1016.03 1016.37 1016.61 1016.77 1016.88 1016.98 1017.10 1017.25 1017.41 1017.58 1017.72 1017.81 1017.84 1017.83 1017.79 1017.75 1017.74 1017.76 1017.80 1017.85 1017.88 1017.86 1017.79 1017.66 1017.50 1017.31 1017.13 1016.99 1016.89 1016.84 1016.81 1016.79 1016.76 1016.72 1016.65 1016.55 1016.45
1013.01 1013.49 1014.06 1014.66 1015.24 1015.77 1016.22 1016.55 1016.80 1016.98 1017.12 1017.26 1017.41 1017.58 1017.77 1017.93 1018.07 1018.15 1018.18 1018.16 1018.13 1018.09 1018.07 1018.07 1018.09 1018.11 1018.11 1018.06 1017.97 1017.82 1017.64 1017.46 1017.29 1017.17 1017.08 1017.02 1016.99 1016.97 1016.92 1016.86 1016.78 1016.68 1016.59
1013.38 1013.87 1014.43 1015.01 1015.56 1016.06 1016.47 1016.80 1017.04 1017.24 1017.41 1017.58 1017.76 1017.95 1018.14 1018.31 1018.44 1018.52 1018.54 1018.53 1018.49 1018.46 1018.43 1018.42 1018.42 1018.40 1018.36 1018.28 1018.16 1018.00 1017.83 1017.66 1017.51 1017.40 1017.33 1017.29 1017.26 1017.22 1017.16 1017.08 1016.99 1016.88 1016.78
1013.79 1014.29 1014.84 1015.39 1015.91 1016.37 1016.75 1017.06 1017.31 1017.52 1017.71 1017.90 1018.10 1018.30 1018.49 1018.66 1018.78 1018.86 1018.89 1018.88 1018.85 1018.82 1018.79 1018.76 1018.73 1018.69 1018.61 1018.50 1018.35 1018.19 1018.02 1017.87 1017.76 1017.68 1017.64 1017.62 1017.59 1017.54 1017.47 1017.37 1017.25 1017.12 1017.01
1014.18 1014.70 1015.24 1015.76 1016.25 1016.67 1017.03 1017.32 1017.57 1017.78 1017.99 1018.19 1018.40 1018.60 1018.79 1018.95 1019.07 1019.14 1019.17 1019.17 1019.16 1019.13 1019.10 1019.06 1019.01 1018.93 1018.82 1018.68 1018.52 1018.35 1018.20 1018.08 1018.01 1017.97 1017.97 1017.97 1017.95 1017.90 1017.82 1017.69 1017.55 1017.40 1017.27
1014.54 1015.06 1015.59 1016.10 1016.55 1016.94 1017.27 1017.55 1017.79 1018.01 1018.22 1018.43 1018.64 1018.84 1019.02 1019.16 1019.27 1019.34 1019.38 1019.39 1019.38 1019.36 1019.34 1019.29 1019.22 1019.12 1018.99 1018.83 1018.65 1018.49 1018.36 1018.28 1018.24 1018.25 1018.29 1018.32 1018.32 1018.27 1018.18 1018.03 1017.86 1017.69 1017.53
1014.86 1015.40 1015.92 1016.40 1016.82 1017.18 1017.48 1017.74 1017.97 1018.19 1018.40 1018.61 1018.82 1019.01 1019.17 1019.31 1019.40 1019.47 1019.51 1019.52 1019.53 1019.52 1019.50 1019.46 1019.38 1019.26 1019.11 1018.93 1018.76 1018.61 1018.50 1018.45 1018.46 1018.51 1018.59 1018.65 1018.67 1018.63 1018.53 1018.38 1018.19 1017.99 1017.80
1015.18 1015.73 1016.24 1016.70 1017.09 1017.42 1017.69 1017.93 1018.15 1018.36 1018.56 1018.77 1018.96 1019.13 1019.28 1019.40 1019.49 1019.55 1019.59 1019.61 1019.63 1019.63 1019.62 1019.57 1019.49 1019.36 1019.20 1019.02 1018.85 1018.71 1018.63 1018.61 1018.66 1018.75 1018.86 1018.95 1019.00 1018.97 1018.87 1018.71 1018.50 1018.28 1018.07
1015.57 1016.12 1016.61 1017.04 1017.40 1017.70 1017.94 1018.15 1018.35 1018.54 1018.73 1018.92 1019.10 1019.26 1019.39 1019.49 1019.56 1019.62 1019.66 1019.69 1019.71 1019.73 1019.72 1019.67 1019.59 1019.46 1019.30 1019.13 1018.96 1018.84 1018.78 1018.78 1018.86 1018.98 1019.12 1019.23 1019.30 1019.28 1019.19 1019.03 1018.82 1018.58 1018.35
1016.06 1016.60 1017.08 1017.48 1017.80 1018.06 1018.27 1018.45 1018.61 1018.77 1018.94 1019.11 1019.26 1019.40 1019.52 1019.61 1019.67 1019.72 1019.76 1019.80 1019.83 1019.84 1019.84 1019.80 1019.72 1019.59 1019.44 1019.27 1019.12 1019.01 1018.96 1018.98 1019.07 1019.21 1019.36 1019.49 1019.56 1019.56 1019.48 1019.33 1019.12 1018.88 1018.64
1016.67 1017.21 1017.67 1018.04 1018.32 1018.54 1018.70 1018.83 1018.95 1019.08 1019.21 1019.34 1019.47 1019.59 1019.69 1019.77 1019.83 1019.87 1019.91 1019.95 1019.98 1020.00 1020.00 1019.96 1019.89 1019.77 1019.62 1019.47 1019.33 1019.23 1019.19 1019.22 1019.31 1019.44 1019.59 1019.72 1019.79 1019.80 1019.73 1019.59 1019.40 1019.17 1018.94
1017.38 1017.90 1018.34 1018.69 1018.93 1019.10 1019.22 1019.30 1019.37 1019.45 1019.53 1019.62 1019.72 1019.81 1019.89 1019.96 1020.02 1020.07 1020.11 1020.15 1020.18 1020.20 1020.20 1020.17 1020.09 1019.99 1019.85 1019.71 1019.58 1019.49 1019.45 1019.47 1019.55 1019.67 1019.80 1019.90 1019.97 1019.98 1019.92 1019.80 1019.63 1019.43 1019.22
1018.12 1018.64 1019.06 1019.37 1019.59 1019.72 1019.79 1019.82 1019.83 1019.85 1019.88 1019.93 1019.99 1020.05 1020.11 1020.17 1020.23 1020.28 1020.33 1020.37 1020.41 1020.43 1020.42 1020.39 1020.32 1020.22 1020.10 1019.97 1019.85 1019.77 1019.72 1019.73 1019.78 1019.87 1019.96 1020.04 1020.08 1020.08 1020.03 1019.93 1019.80 1019.63 1019.45
1018.82 1019.32 1019.73 1020.03 1020.22 1020.32 1020.34 1020.33 1020.29 1020.25 1020.22 1020.22 1020.24 1020.27 1020.32 1020.37 1020.43 1020.48 1020.54 1020.59 1020.62 1020.64 1020.64 1020.61 1020.55 1020.46 1020.35 1020.23 1020.12 1020.04 1019.98 1019.96 1019.98 1020.02 1020.06 1020.10 1020.11 1020.10 1020.05 1019.97 1019.87 1019.75 1019.61
1019.38 1019.87 1020.27 1020.56 1020.74 1020.82 1020.81 1020.76 1020.68 1020.59 1020.51 1020.47 1020.44 1020.45 1020.48 1020.53 1020.59 1020.66 1020.72 1020.77 1020.81 1020.84 1020.84 1020.81 1020.75 1020.67 1020.57 1020.47 1020.36 1020.28 1020.21 1020.16 1020.13 1020.11 1020.10 1020.09 1020.06 1020.02 1019.97 1019.90 1019.83 1019.75 1019.66
1019.74 1020.23 1020.62 1020.91 1021.08 1021.15 1021.14 1021.07 1020.96 1020.84 1020.73 1020.65 1020.60 1020.59 1020.61 1020.66 1020.72 1020.79 1020.87 1020.93 1020.97 1021.00 1021.00 1020.97 1020.92 1020.85 1020.77 1020.67 1020.57 1020.48 1020.39 1020.31 1020.23 1020.15 1020.08 1020.00 1019.93 1019.86 1019.79 1019.74 1019.69 1019.65 1019.61
1019.88 1020.35 1020.74 1021.03 1021.21 1021.29 1021.29 1021.22 1021.11 1020.98 1020.86 1020.76 1020.70 1020.68 1020.70 1020.76 1020.83 1020.91 1020.99 1021.06 1021.11 1021.14 1021.14 1021.12 1021.08 1021.01 1020.93 1020.85 1020.75 1020.65 1020.53 1020.42 1020.29 1020.16 1020.02 1019.88 1019.75 1019.64 1019.55 1019.49 1019.47 1019.46 1019.45
1019.81 1020.25 1020.63 1020.92 1021.12 1021.22 1021.25 1021.20 1021.11 1021.00 1020.90 1020.82 1020.77 1020.76 1020.79 1020.85 1020.94 1021.03 1021.12 1021.19 1021.25 1021.27 1021.28 1021.26 1021.21 1021.16 1021.09 1021.00 1020.90 1020.79 1020.66 1020.51 1020.33 1020.14 1019.94 1019.74 1019.56 1019.40 1019.29 1019.22 1019.19 1019.20 1019.22
1019.56 1019.97 1020.34 1020.63 1020.84 1020.97 1021.04 1021.04 1020.99 1020.93 1020.87 1020.83 1020.81 1020.83 1020.89 1020.97 1021.07 1021.18 1021.27 1021.35 1021.40 1021.42 1021.42 1021.39 1021.35 1021.30 1021.23 1021.15 1021.04 1020.92 1020.77 1020.59 1020.37 1020.13 1019.88 1019.62 1019.39 1019.19 1019.04 1018.95 1018.92 1018.93 1018.96
1019.22 1019.59 1019.92 1020.21 1020.43 1020.59 1020.70 1020.76 1020.78 1020.79 1020.79 1020.81 1020.85 1020.92 1021.01 1021.12 1021.24 1021.35 1021.45 1021.52 1021.56 1021.58 1021.57 1021.54 1021.49 1021.43 1021.36 1021.28 1021.17 1021.04 1020.88 1020.67 1020.43 1020.15 1019.85 1019.55 1019.27 1019.04 1018.85 1018.74 1018.68 1018.68 1018.71
1018.84 1019.16 1019.46 1019.73 1019.95 1020.14 1020.29 1020.41 1020.51 1020.59 1020.67 1020.77 1020.87 1021.00 1021.14 1021.28 1021.42 1021.54 1021.63 1021.70 1021.73 1021.73 1021.71 1021.67 1021.61 1021.54 1021.47 1021.39 1021.28 1021.14 1020.97 1020.75 1020.48 1020.18 1019.86 1019.53 1019.22 1018.95 1018.74 1018.59 1018.52 1018.50 1018.51
Thickness
5729 5728 5725 5724 5724 5724 5725 5725 5725 5725 5725 5725 5724 5724 5724 5724 5724 5724 5724 5724 5724 5725 5725 5725 5725 5725 5725 5725 5724 5724 5724 5723 5723 5722 5722 5722 5722 5722 5721 5720 5721 5722 5719
5727 5725 5721 5721 5721 5721 5721 5721 5722 5722 5722 5722 5721 5721 5721 5721 5721 5721 5721 5721 5722 5722 5722 5722 5723 5722 5722 5722 5722 5721 5721 5720 5720 5719 5720 5720 5719 5718 5718 5717 5717 5718 5715
5721 5721 5718 5717 5717 5717 5717 5718 5718 5718 5718 5718 5718 5718 5718 5718 5718 5718 5718 5718 5718 5719 5719 5719 5719 5719 5719 5719 5719 5718 5718 5717 5717 5717 5718 5720 5717 5715 5715 5714 5713 5713 5712
5715 5715 5714 5712 5713 5713 5713 5713 5714 5714 5714 5714 5714 5714 5714 5714 5715 5715 5715 5715 5715 5715 5715 5716 5716 5716 5716 5716 5715 5715 5715 5714 5714 5715 5718 5717 5716 5712 5712 5711 5710 5709 5709
5709 5709 5709 5707 5708 5708 5708 5709 5709 5709 5710 5710 5710 5710 5710 5711 5711 5711 5711 5712 5712 5712 5712 5712 5713 5712 5712 5713 5712 5712 5711 5711 5712 5713 5714 5714 5712 5709 5708 5708 5707 5706 5705
5703 5703 5703 5701 5702 5702 5703 5703 5704 5704 5705 5705 5706 5706 5706 5706 5707 5707 5707 5708 5708 5708 5708 5709 5709 5709 5709 5709 5709 5708 5708 5708 5709 5711 5711 5710 5709 5706 5705 5704 5703 5702 5701
5695 5696 5696 5695 5695 5696 5697 5697 5698 5699 5700 5700 5701 5701 5701 5702 5702 5702 5703 5703 5704 5704 5705 5705 5705 5705 5705 5705 5705 5705 5704 5704 5707 5707 5707 5706 5704 5702 5701 5700 5699 5698 5697
5687 5688 5689 5688 5688 5689 5690 5691 5692 5693 5694 5695 5695 5696 5696 5697 5697 5698 5698 5699 5700 5700 5701 5701 5701 5701 5701 5701 5701 5701 5700 5701 5703 5703 5703 5702 5699 5698 5698 5697 5695 5694 5693
5679 5680 5681 5681 5681 5682 5683 5684 5685 5686 5687 5688 5689 5690 5691 5692 5692 5692 5693 5694 5695 5696 5696 5697 5697 5697 5696 5696 5696 5696 5696 5697 5700 5700 5699 5698 5695 5694 5694 5693 5691 5690 5689
5670 5672 5674 5675 5676 5676 5677 5677 5679 5680 5680 5681 5682 5683 5685 5686 5686 5687 5688 5689 5690 5690 5691 5692 5692 5692 5692 5692 5692 5692 5692 5694 5696 5695 5694 5693 5690 5690 5689 5688 5687 5686 5684
5661 5664 5666 5668 5669 5670 5671 5671 5672 5673 5674 5675 5675 5676 5678 5681 5682 5683 5683 5684 5684 5685 5686 5687 5687 5687 5687 5687 5687 5687 5689 5691 5692 5691 5689 5687 5686 5685 5684 5683 5682 5681 5680
5653 5656 5658 5661 5663 5664 5665 5666 5666 5667 5668 5670 5671 5671 5673 5675 5677 5678 5677 5678 5679 5680 5680 5681 5682 5682 5683 5684 5683 5684 5685 5686 5686 5685 5683 5681 5680 5680 5679 5678 5677 5676 5675
5647 5648 5651 5654 5656 5658 5659 5661 5662 5662 5663 5665 5665 5666 5667 5669 5670 5672 5673 5673 5674 5675 5676 5676 5677 5679 5679 5679 5680 5680 5680 5681 5680 5679 5677 5675 5675 5675 5674 5673 5672 5671 5670
5640 5642 5644 5647 5649 5652 5653 5655 5656 5657 5658 5659 5660 5660 5661 5663 5665 5667 5669 5669 5670 5671 5671 5672 5673 5674 5674 5674 5675 5676 5675 5675 5674 5673 5671 5669 5669 5669 5668 5667 5666 5665 5664
5633 5635 5638 5641 5643 5645 5646 5648 5650 5651 5652 5653 5654 5655 5656 5657 5659 5661 5663 5663 5665 5665 5666 5667 5668 5668 5669 5668 5669 5670 5670 5669 5668 5667 5665 5662 5662 5662 5661 5660 5660 5659 5658
5627 5629 5632 5635 5637 5639 5640 5642 5643 5644 5646 5647 5648 5649 5649 5651 5653 5654 5656 5657 5658 5659 5660 5661 5662 5662 5662 5662 5662 5662 5663 5663 5662 5660 5659 5657 5655 5654 5654 5653 5653 5652 5651
5621 5624 5626 5628 5630 5632 5634 5636 5637 5638 5639 5640 5641 5642 5643 5644 5645 5647 5650 5651 5652 5652 5653 5655 5655 5655 5655 5655 5655 5655 5656 5656 5655 5654 5652 5650 5649 5647 5646 5645 5645 5644 5644
5614 5617 5619 5621 5623 5625 5627 5629 5631 5631 5632 5633 5634 5635 5636 5637 5639 5640 5642 5644 5645 5645 5647 5647 5648 5648 5648 5648 5649 5648 5648 5647 5647 5646 5644 5643 5641 5640 5638 5636 5636 5636 5635
5607 5610 5612 5614 5615 5617 5620 5621 5623 5624 5625 5626 5627 5628 5629 5630 5632 5633 5635 5636 5637 5639 5640 5640 5641 5641 5641 5640 5641 5640 5640 5640 5639 5638 5637 5635 5633 5632 5631 5629 5628 5627 5627
5600 5603 5605 5607 5609 5610 5612 5614 5616 5617 5617 5618 5619 5620 5622 5623 5625 5626 5627 5628 5629 5631 5633 5633 5633 5633 5633 5632 5633 5632 5632 5631 5630 5630 5628 5627 5625 5624 5623 5622 5622 5620 5619
5593 5596 5599 5600 5602 5603 5604 5607 5609 5611 5611 5611 5611 5613 5614 5616 5617 5619 5620 5621 5622 5624 5626 5627 5626 5626 5625 5625 5625 5625 5624 5623 5622 5621 5620 5619 5617 5616 5615 5614 5613 5613 5612
5589 5591 5593 5594 5595 5596 5597 5599 5601 5604 5604 5604 5604 5605 5606 5608 5610 5612 5613 5614 5615 5616 5618 5619 5619 5619 5617 5617 5619 5620 5619 5617 5615 5613 5612 5610 5610 5608 5607 5606 5605 5604 5603
5582 5583 5587 5587 5588 5590 5590 5591 5591 5594 5595 5596 5597 5598 5599 5600 5602 5604 5605 5606 5607 5609 5611 5612 5612 5612 5611 5610 5610 5613 5613 5615 5610 5607 5604 5603 5602 5601 5600 5598 5597 5595 5594
5577 5578 5580 5581 5582 5583 5584 5585 5586 5589 5592 5592 5592 5592 5592 5593 5594 5595 5597 5598 5599 5601 5602 5603 5604 5605 5604 5604 5602 5601 5603 5605 5603 5601 5598 5595 5593 5592 5591 5589 5588 5586 5585
5572 5573 5574 5575 5575 5577 5578 5579 5581 5583 5585 5585 5584 5584 5585 5585 5586 5587 5588 5590 5591 5593 5594 5595 5596 5596 5597 5597 5596 5595 5593 5592 5593 5593 5592 5589 5585 5583 5581 5580 5579 5578 5576
5567 5567 5568 5569 5569 5570 5571 5572 5574 5576 5577 5578 5577 5577 5578 5578 5579 5579 5579 5581 5583 5584 5585 5586 5587 5588 5589 5589 5588 5587 5587 5586 5585 5584 5583 5581 5578 5575 5572 5570 5570 5569 5567